GW5324 Weather Reports


Display with metric or nautical units.
time (UTC)temp
F
wind
direction
speed
MPH
gust
MPH
rain 1hr
in
rain 24hr
in
rain mn
in
humidity
%
barometer
mb
20260905130018 53 98 0.0 3.0 0.00 0.13 0.00 91 1017.3
20260905124536 53 98 0.0 3.0 0.00 0.13 0.00 91 1017.2
20260905123034 54 98 0.0 2.0 0.00 0.13 0.00 91 1017.3
20260905121534 54 99 1.0 3.0 0.00 0.14 0.00 91 1017.1
20260905120052 54 99 0.0 2.0 0.00 0.15 0.00 90 1017.1
20260905114512 55 121 0.0 2.0 0.00 0.16 0.00 90 1017.0
20260905113014 54 107 0.0 2.0 0.00 0.17 0.00 91 1017.1
20260905111525 54 107 1.0 2.0 0.00 0.17 0.00 91 1017.1
20260905110020 54 107 0.0 2.0 0.00 0.17 0.00 92 1017.0
20260905104513 54 123 0.0 0.0 0.00 0.17 0.00 91 1017.0
20260905103023 54 123 0.0 2.0 0.00 0.17 0.00 92 1017.2
20260905101516 53 148 1.0 3.0 0.00 0.17 0.00 92 1017.1
20260905100011 54 122 2.0 3.0 0.00 0.17 0.00 92 1017.0
20260905094516 54 102 0.0 0.0 0.00 0.17 0.00 92 1016.8
20260905093017 54 102 0.0 0.0 0.00 0.17 0.00 92 1017.1
20260905091518 54 102 0.0 0.0 0.00 0.17 0.00 92 1016.8
20260905090018 54 102 1.0 2.0 0.00 0.17 0.00 92 1016.6
20260905084516 54 102 0.0 2.0 0.00 0.17 0.00 92 1016.8
20260905083018 55 102 1.0 2.0 0.00 0.17 0.00 91 1016.6
20260905081521 55 97 0.0 0.0 0.00 0.17 0.00 91 1016.5
20260905080028 56 97 0.0 0.0 0.00 0.17 0.00 91 1016.5
20260905074520 56 97 0.0 0.0 0.00 0.17 0.00 91 1016.5
20260905073028 55 96 0.0 0.0 0.00 0.17 0.00 91 1016.6
20260905071523 56 96 0.0 0.0 0.00 0.17 0.00 91 1016.4
20260905070044 56 96 0.0 0.0 0.00 0.17 0.00 91 1016.4
20260905064537 56 96 0.0 2.0 0.00 0.17 0.17 91 1016.2
20260905063027 56 96 0.0 2.0 0.00 0.17 0.17 91 1016.1
20260905061524 56 96 0.0 3.0 0.00 0.17 0.17 90 1016.0
20260905060025 56 133 0.0 2.0 0.00 0.17 0.17 90 1016.0
20260905054534 56 133 0.0 2.0 0.00 0.17 0.17 90 1016.2
20260905053025 56 134 2.0 5.0 0.00 0.17 0.17 90 1015.8
20260905051532 56 86 0.0 0.0 0.00 0.17 0.17 90 1015.8
20260905050025 57 75 0.0 2.0 0.00 0.17 0.17 89 1015.6
20260905044529 57 188 0.0 2.0 0.00 0.17 0.17 88 1015.6
20260905043025 57 129 0.0 2.0 0.00 0.17 0.17 89 1015.6
20260905041527 57 123 2.0 2.0 0.00 0.17 0.17 88 1015.7
20260905040026 57 123 0.0 2.0 0.00 0.17 0.17 88 1015.5
20260905034510 57 123 1.0 3.0 0.00 0.17 0.17 87 1015.5
20260905033006 57 115 0.0 2.0 0.00 0.17 0.17 86 1015.2
20260905031513 57 115 3.0 3.0 0.00 0.17 0.17 85 1015.2
20260905030021 58 69 0.0 0.0 0.00 0.17 0.17 84 1015.1
20260905024529 58 68 0.0 2.0 0.00 0.17 0.17 81 1015.2
20260905023004 59 67 1.0 3.0 0.00 0.17 0.17 79 1015.1
20260905021517 60 67 2.0 3.0 0.00 0.17 0.17 78 1015.2
20260905020018 61 53 0.0 0.0 0.00 0.17 0.17 77 1015.0
20260905014522 61 44 1.0 4.0 0.00 0.17 0.17 77 1014.8
20260905013027 61 94 1.0 4.0 0.00 0.17 0.17 77 1014.6
20260905011510 61 62 1.0 3.0 0.00 0.17 0.17 79 1014.3
20260905010018 61 101 1.0 4.0 0.00 0.17 0.17 82 1014.5
20260905004524 61 104 2.0 6.0 0.00 0.17 0.17 81 1014.4
20260905003034 61 82 4.0 7.0 0.00 0.17 0.17 81 1014.4
20260905001531 61 69 3.0 5.0 0.00 0.17 0.17 82 1014.3
20260905000014 61 68 0.0 3.0 0.01 0.17 0.17 86 1014.2
20260904234519 60 82 0.0 3.0 0.03 0.17 0.17 87 1014.5
20260904233027 0 101 0.0 0.0 0.05 0.17 0.17 87 1014.3
20260904231529 59 101 0.0 2.0 0.08 0.18 0.17 86 1014.2
20260904230012 59 167 0.0 2.0 0.10 0.19 0.16 85 1014.3
20260904224516 58 200 4.0 7.0 0.09 0.17 0.14 86 1014.3
20260904223023 58 161 3.0 5.0 0.07 0.15 0.12 85 1014.4
20260904221542 58 223 4.0 7.0 0.04 0.12 0.09 78 1014.5
20260904220031 60 232 2.0 11.0 0.01 0.09 0.06 75 1013.9
20260904214536 62 217 8.0 22.0 0.00 0.08 0.05 71 1013.7
20260904213019 68 130 0.0 3.0 0.00 0.08 0.05 49 1013.2
20260904211534 69 5 1.0 4.0 0.00 0.08 0.05 48 1012.9
20260904210029 69 322 1.0 5.0 0.00 0.08 0.05 48 1012.7
20260904204532 69 319 2.0 4.0 0.00 0.08 0.05 48 1012.8
20260904203023 69 59 6.0 9.0 0.00 0.08 0.05 50 1012.8
20260904201529 69 63 4.0 8.0 0.00 0.08 0.05 49 1012.9
20260904200031 68 25 3.0 8.0 0.00 0.08 0.05 51 1012.9
20260904194618 68 350 2.0 6.0 0.00 0.08 0.05 49 1013.0
20260904193029 66 61 2.0 6.0 0.00 0.08 0.05 56 1013.1
20260904191524 65 23 1.0 4.0 0.00 0.08 0.05 58 1013.4
20260904190029 65 74 1.0 4.0 0.00 0.08 0.05 62 1013.5
20260904184530 64 49 1.0 5.0 0.00 0.08 0.05 63 1013.4
20260904183034 64 103 2.0 6.0 0.00 0.18 0.05 64 1013.2
20260904181516 64 135 3.0 8.0 0.00 0.18 0.05 66 1013.4
20260904180023 63 76 3.0 9.0 0.00 0.18 0.05 70 1013.2
20260904174530 61 112 5.0 9.0 0.00 0.18 0.05 73 1013.1
20260904173015 60 97 4.0 13.0 0.00 0.18 0.05 76 1013.2
20260904171524 60 88 7.0 13.0 0.00 0.18 0.05 77 1013.1
20260904170020 0 83 7.0 11.0 0.00 0.18 0.05 78 1013.0
20260904164531 58 74 11.0 14.0 0.00 0.18 0.05 81 1013.2
20260904163031 58 67 6.0 10.0 0.00 0.18 0.05 81 1013.0
20260904161512 58 80 5.0 8.0 0.00 0.18 0.05 81 1012.9
20260904160036 56 84 4.0 7.0 0.00 0.18 0.05 85 1012.9
20260904154531 56 121 2.0 6.0 0.00 0.19 0.05 87 1013.1
20260904153028 55 142 3.0 8.0 0.00 0.19 0.05 87 1013.0
20260904151541 55 127 4.0 9.0 0.00 0.20 0.05 88 1012.7
20260904150035 54 84 3.0 8.0 0.00 0.20 0.05 89 1012.4
20260904144524 54 78 6.0 9.0 0.00 0.22 0.05 89 1012.4
20260904143027 54 130 2.0 5.0 0.01 0.23 0.05 90 1012.5
20260904141550 53 115 2.0 4.0 0.01 0.23 0.05 91 1012.2
20260904140013 53 81 2.0 5.0 0.01 0.24 0.05 91 1012.0
20260904134538 53 59 1.0 3.0 0.01 0.25 0.05 91 1012.0
20260904133031 53 173 0.0 2.0 0.00 0.24 0.04 90 1011.9
20260904131531 53 162 4.0 7.0 0.01 0.24 0.04 91 1011.9